Voltar ao catálogo

STARLINK-11207

AtivoComunicaçõesVLEO
NORAD 60933·PAYLOAD·🇺🇸 United States

Lançado Aug 31, 2024 de Vandenberg Space Force Base

Loading…

Próximas Passagens (próximas 24 horas)

TLE

AtualizadoSource: CelesTrak SupGP

Época: Sep 14, 2026, 22:19 UTC

1 60933C 24155K   26257.93034722 -.00051165  00000+0 -42150-3 0  2571
2 60933  53.1564 128.1003 0001229  88.0634  82.7282 15.69732991    17

Acompanhe STARLINK-11207 em tempo real com AllMySat

Download on the App Store